QPF
0.07 0.09 0.12 0.13 0.16 0.19 0.22 0.25 0.25 0.22 0.23 0.22 0.15 0.13 0.14 0.14 0.14 0.12 0.07 0.03 0.02 0.02 0.02 0.02 0.02 0.02 0.03 0.05 0.07 0.09 0.11 0.14 0.19 0.23 0.27 0.30 0.32 0.32
0.08 0.11 0.13 0.15 0.19 0.22 0.24 0.28 0.31 0.30 0.25 0.19 0.15 0.12 0.12 0.10 0.08 0.08 0.04 0.03 0.02 0.03 0.03 0.03 0.03 0.03 0.03 0.04 0.06 0.08 0.11 0.16 0.23 0.30 0.36 0.39 0.40 0.40
0.05 0.07 0.10 0.14 0.17 0.20 0.24 0.27 0.30 0.32 0.23 0.15 0.12 0.12 0.10 0.07 0.06 0.06 0.05 0.03 0.03 0.04 0.05 0.04 0.04 0.05 0.05 0.05 0.06 0.08 0.09 0.13 0.18 0.25 0.32 0.39 0.44 0.44
0.03 0.05 0.08 0.11 0.15 0.17 0.20 0.20 0.22 0.25 0.20 0.12 0.09 0.09 0.09 0.08 0.08 0.08 0.07 0.06 0.05 0.07 0.05 0.04 0.04 0.04 0.06 0.07 0.08 0.09 0.11 0.14 0.17 0.21 0.23 0.25 0.29 0.36
0.02 0.04 0.07 0.09 0.11 0.13 0.14 0.15 0.15 0.19 0.17 0.12 0.10 0.10 0.11 0.11 0.11 0.10 0.09 0.08 0.06 0.06 0.04 0.02 0.02 0.03 0.04 0.06 0.08 0.09 0.10 0.12 0.13 0.14 0.18 0.23 0.23 0.21
0.02 0.03 0.04 0.06 0.09 0.09 0.11 0.12 0.13 0.12 0.11 0.12 0.13 0.14 0.14 0.16 0.15 0.15 0.15 0.12 0.07 0.04 0.03 0.02 0.01 0.01 0.01 0.02 0.04 0.05 0.05 0.07 0.07 0.07 0.06 0.08 0.10 0.11
0.02 0.02 0.02 0.04 0.06 0.08 0.10 0.11 0.12 0.11 0.10 0.12 0.14 0.16 0.18 0.19 0.18 0.16 0.14 0.12 0.08 0.06 0.04 0.03 0.02 0.01 0.00 0.01 0.01 0.03 0.04 0.04 0.04 0.04 0.03 0.03 0.03 0.03
0.02 0.01 0.02 0.03 0.04 0.06 0.10 0.11 0.13 0.13 0.13 0.15 0.17 0.18 0.21 0.20 0.17 0.15 0.14 0.13 0.12 0.13 0.10 0.07 0.04 0.01 0.00 0.00 0.00 0.01 0.01 0.02 0.03 0.03 0.02 0.01 0.01 0.01
0.03 0.02 0.02 0.03 0.05 0.04 0.04 0.06 0.09 0.13 0.15 0.18 0.20 0.18 0.18 0.17 0.14 0.13 0.13 0.13 0.12 0.13 0.11 0.06 0.03 0.00 0.00 0.00 0.00 0.00 0.00 0.01 0.01 0.01 0.01 0.00 0.00 0.00
0.03 0.02 0.02 0.03 0.06 0.07 0.04 0.04 0.07 0.10 0.13 0.15 0.19 0.18 0.15 0.14 0.12 0.10 0.08 0.07 0.07 0.08 0.07 0.04 0.02 0.01 0.00 0.00 0.00 0.00 0.00 0.00 0.00 0.00 0.00 0.00 0.00 0.00
0.04 0.02 0.02 0.02 0.04 0.06 0.07 0.04 0.04 0.07 0.09 0.09 0.09 0.09 0.08 0.06 0.06 0.06 0.04 0.03 0.03 0.04 0.03 0.02 0.01 0.00 0.00 0.00 0.00 0.00 0.00 0.00 0.00 0.00 0.00 0.00 0.00 0.00
0.05 0.03 0.02 0.02 0.01 0.02 0.04 0.05 0.04 0.03 0.03 0.03 0.02 0.02 0.02 0.02 0.02 0.02 0.02 0.01 0.01 0.01 0.01 0.01 0.01 0.00 0.00 0.00 0.00 0.00 0.00 0.00 0.00 0.00 0.00 0.00 0.00 0.00
0.05 0.04 0.02 0.01 0.00 0.00 0.02 0.03 0.03 0.02 0.01 0.01 0.01 0.01 0.01 0.01 0.00 0.00 0.00 0.00 0.00 0.00 0.00 0.00 0.00 0.00 0.00 0.00 0.00 0.00 0.00 0.00 0.00 0.00 0.00 0.00 0.00 0.00
0.07 0.04 0.01 0.00 0.00 0.00 0.01 0.01 0.00 0.01 0.00 0.00 0.00 0.00 0.00 0.00 0.00 0.00 0.00 0.00 0.00 0.00 0.00 0.00 0.00 0.00 0.00 0.00 0.00 0.00 0.00 0.00 0.00 0.01 0.01 0.00 0.00 0.00
0.09 0.03 0.01 0.00 0.00 0.00 0.00 0.00 0.00 0.00 0.00 0.00 0.00 0.00 0.00 0.00 0.00 0.00 0.00 0.00 0.00 0.00 0.00 0.00 0.00 0.00 0.00 0.00 0.00 0.00 0.00 0.00 0.00 0.00 0.01 0.01 0.01 0.00
0.10 0.02 0.01 0.00 0.00 0.00 0.00 0.00 0.00 0.00 0.00 0.00 0.00 0.00 0.00 0.00 0.00 0.00 0.00 0.00 0.00 0.00 0.00 0.00 0.00 0.00 0.00 0.00 0.00 0.00 0.00 0.00 0.00 0.00 0.00 0.01 0.01 0.00
0.10 0.02 0.01 0.00 0.00 0.00 0.00 0.00 0.00 0.00 0.00 0.00 0.00 0.00 0.00 0.00 0.00 0.00 0.00 0.00 0.00 0.00 0.00 0.00 0.00 0.00 0.00 0.00 0.00 0.00 0.00 0.00 0.00 0.00 0.00 0.00 0.00 0.00
0.08 0.01 0.01 0.00 0.01 0.00 0.00 0.00 0.00 0.00 0.00 0.00 0.00 0.00 0.00 0.00 0.00 0.00 0.00 0.00 0.00 0.00 0.00 0.00 0.00 0.00 0.00 0.00 0.00 0.00 0.00 0.00 0.00 0.00 0.00 0.00 0.00 0.00
0.04 0.01 0.00 0.00 0.00 0.00 0.00 0.00 0.00 0.00 0.00 0.00 0.00 0.00 0.00 0.00 0.00 0.00 0.00 0.00 0.00 0.00 0.00 0.00 0.00 0.00 0.00 0.00 0.00 0.00 0.00 0.00 0.00 0.00 0.00 0.00 0.00 0.00
0.02 0.01 0.00 0.00 0.00 0.00 0.00 0.00 0.00 0.00 0.00 0.00 0.00 0.00 0.00 0.00 0.00 0.00 0.00 0.00 0.00 0.00 0.00 0.00 0.00 0.00 0.00 0.00 0.00 0.00 0.00 0.00 0.00 0.00 0.00 0.00 0.00 0.00
0.01 0.00 0.00 0.00 0.00 0.00 0.00 0.00 0.00 0.00 0.00 0.00 0.00 0.00 0.00 0.00 0.00 0.00 0.00 0.00 0.00 0.00 0.00 0.00 0.00 0.00 0.00 0.00 0.00 0.00 0.00 0.00 0.00 0.00 0.00 0.00 0.00 0.00
0.01 0.00 0.00 0.00 0.00 0.00 0.00 0.00 0.00 0.00 0.00 0.00 0.00 0.00 0.00 0.00 0.00 0.00 0.00 0.00 0.00 0.00 0.00 0.00 0.00 0.00 0.00 0.00 0.00 0.00 0.00 0.00 0.00 0.00 0.00 0.00 0.00 0.00
0.00 0.00 0.00 0.00 0.00 0.00 0.00 0.00 0.00 0.00 0.00 0.00 0.00 0.00 0.00 0.00 0.00 0.00 0.00 0.00 0.00 0.00 0.00 0.00 0.00 0.00 0.00 0.00 0.00 0.00 0.00 0.00 0.00 0.00 0.00 0.00 0.00 0.00
MSLP
1008.20 1008.18 1008.14 1008.07 1007.92 1007.69 1007.38 1007.01 1006.61 1006.22 1005.87 1005.61 1005.45 1005.41 1005.49 1005.66 1005.93 1006.26 1006.63 1007.04 1007.45 1007.86 1008.24 1008.58 1008.85 1009.06 1009.17 1009.20 1009.16 1009.06 1008.93 1008.81 1008.74 1008.74 1008.83 1009.02 1009.31 1009.68
1007.48 1007.45 1007.41 1007.32 1007.18 1006.96 1006.68 1006.37 1006.05 1005.77 1005.56 1005.45 1005.46 1005.59 1005.82 1006.14 1006.53 1006.94 1007.38 1007.81 1008.22 1008.60 1008.94 1009.22 1009.44 1009.58 1009.62 1009.58 1009.46 1009.29 1009.09 1008.89 1008.75 1008.67 1008.70 1008.83 1009.08 1009.41
1006.84 1006.80 1006.74 1006.63 1006.45 1006.22 1005.94 1005.66 1005.40 1005.22 1005.14 1005.18 1005.36 1005.67 1006.07 1006.55 1007.06 1007.57 1008.07 1008.54 1008.96 1009.33 1009.65 1009.90 1010.08 1010.18 1010.19 1010.11 1009.96 1009.74 1009.50 1009.26 1009.06 1008.93 1008.90 1008.99 1009.18 1009.47
1006.36 1006.31 1006.23 1006.09 1005.88 1005.62 1005.33 1005.05 1004.84 1004.72 1004.74 1004.92 1005.24 1005.70 1006.26 1006.87 1007.49 1008.10 1008.66 1009.16 1009.59 1009.96 1010.27 1010.50 1010.68 1010.77 1010.79 1010.72 1010.57 1010.35 1010.10 1009.85 1009.62 1009.46 1009.38 1009.42 1009.57 1009.81
1006.06 1006.03 1005.95 1005.79 1005.56 1005.27 1004.97 1004.69 1004.49 1004.42 1004.51 1004.78 1005.20 1005.77 1006.43 1007.13 1007.82 1008.48 1009.08 1009.60 1010.04 1010.41 1010.71 1010.96 1011.15 1011.28 1011.33 1011.31 1011.21 1011.03 1010.81 1010.57 1010.34 1010.16 1010.06 1010.05 1010.16 1010.36
1005.91 1005.92 1005.87 1005.73 1005.50 1005.21 1004.90 1004.63 1004.45 1004.40 1004.53 1004.83 1005.31 1005.93 1006.63 1007.36 1008.08 1008.74 1009.33 1009.84 1010.27 1010.64 1010.96 1011.23 1011.46 1011.64 1011.77 1011.82 1011.79 1011.69 1011.52 1011.32 1011.11 1010.92 1010.80 1010.77 1010.83 1010.99
1005.83 1005.91 1005.93 1005.84 1005.66 1005.40 1005.12 1004.86 1004.70 1004.67 1004.80 1005.12 1005.60 1006.20 1006.88 1007.59 1008.27 1008.90 1009.45 1009.92 1010.32 1010.67 1011.00 1011.30 1011.58 1011.83 1012.04 1012.18 1012.25 1012.23 1012.14 1011.99 1011.81 1011.65 1011.52 1011.47 1011.50 1011.61
1005.70 1005.90 1006.01 1006.02 1005.92 1005.74 1005.51 1005.31 1005.17 1005.16 1005.29 1005.59 1006.04 1006.59 1007.21 1007.84 1008.44 1008.98 1009.45 1009.86 1010.22 1010.55 1010.88 1011.20 1011.54 1011.86 1012.15 1012.39 1012.55 1012.62 1012.61 1012.52 1012.39 1012.25 1012.13 1012.06 1012.07 1012.15
1005.46 1005.77 1006.01 1006.14 1006.16 1006.09 1005.96 1005.83 1005.75 1005.76 1005.90 1006.17 1006.56 1007.04 1007.57 1008.10 1008.59 1009.03 1009.41 1009.74 1010.05 1010.35 1010.67 1011.01 1011.39 1011.77 1012.14 1012.45 1012.70 1012.85 1012.91 1012.88 1012.80 1012.69 1012.58 1012.52 1012.52 1012.58
1005.06 1005.49 1005.86 1006.12 1006.28 1006.33 1006.33 1006.30 1006.30 1006.36 1006.51 1006.77 1007.11 1007.51 1007.94 1008.36 1008.74 1009.08 1009.36 1009.62 1009.87 1010.14 1010.45 1010.80 1011.21 1011.63 1012.05 1012.42 1012.73 1012.95 1013.06 1013.09 1013.05 1012.97 1012.89 1012.84 1012.85 1012.91
1004.53 1005.06 1005.54 1005.93 1006.22 1006.42 1006.54 1006.63 1006.72 1006.85 1007.03 1007.28 1007.59 1007.93 1008.28 1008.60 1008.89 1009.14 1009.35 1009.55 1009.76 1010.00 1010.29 1010.65 1011.06 1011.51 1011.95 1012.36 1012.70 1012.95 1013.11 1013.18 1013.18 1013.14 1013.10 1013.08 1013.10 1013.17
1003.96 1004.55 1005.11 1005.61 1006.02 1006.34 1006.59 1006.79 1006.98 1007.19 1007.42 1007.68 1007.97 1008.27 1008.56 1008.83 1009.05 1009.24 1009.40 1009.56 1009.74 1009.97 1010.25 1010.61 1011.02 1011.46 1011.90 1012.32 1012.67 1012.94 1013.12 1013.21 1013.25 1013.25 1013.25 1013.26 1013.32 1013.41
1003.45 1004.07 1004.67 1005.23 1005.72 1006.14 1006.49 1006.80 1007.08 1007.36 1007.64 1007.94 1008.24 1008.52 1008.79 1009.02 1009.21 1009.37 1009.51 1009.66 1009.83 1010.05 1010.33 1010.68 1011.08 1011.50 1011.93 1012.33 1012.67 1012.93 1013.12 1013.24 1013.30 1013.34 1013.38 1013.44 1013.53 1013.66
1003.07 1003.68 1004.29 1004.87 1005.41 1005.89 1006.32 1006.70 1007.06 1007.41 1007.75 1008.08 1008.40 1008.69 1008.95 1009.18 1009.36 1009.52 1009.67 1009.82 1010.00 1010.23 1010.52 1010.86 1011.24 1011.64 1012.04 1012.41 1012.72 1012.97 1013.15 1013.28 1013.36 1013.44 1013.52 1013.62 1013.75 1013.91
1002.88 1003.44 1004.02 1004.59 1005.13 1005.64 1006.11 1006.55 1006.97 1007.38 1007.76 1008.13 1008.47 1008.78 1009.06 1009.29 1009.49 1009.67 1009.84 1010.02 1010.22 1010.47 1010.76 1011.10 1011.46 1011.84 1012.20 1012.53 1012.81 1013.04 1013.21 1013.34 1013.44 1013.54 1013.66 1013.80 1013.96 1014.14
1002.84 1003.34 1003.86 1004.39 1004.91 1005.42 1005.91 1006.38 1006.85 1007.29 1007.72 1008.12 1008.49 1008.82 1009.11 1009.37 1009.59 1009.80 1010.00 1010.21 1010.44 1010.71 1011.02 1011.35 1011.71 1012.06 1012.39 1012.69 1012.93 1013.13 1013.28 1013.41 1013.52 1013.63 1013.77 1013.93 1014.11 1014.30
1002.89 1003.32 1003.77 1004.23 1004.72 1005.21 1005.70 1006.20 1006.69 1007.17 1007.62 1008.05 1008.45 1008.80 1009.12 1009.40 1009.64 1009.88 1010.11 1010.35 1010.62 1010.92 1011.24 1011.58 1011.93 1012.26 1012.57 1012.83 1013.04 1013.21 1013.35 1013.46 1013.57 1013.68 1013.82 1013.99 1014.17 1014.36
1002.93 1003.28 1003.66 1004.07 1004.51 1004.98 1005.47 1005.98 1006.49 1007.00 1007.48 1007.94 1008.36 1008.73 1009.07 1009.37 1009.64 1009.90 1010.16 1010.44 1010.74 1011.06 1011.40 1011.74 1012.09 1012.41 1012.69 1012.93 1013.12 1013.26 1013.37 1013.46 1013.55 1013.66 1013.78 1013.93 1014.10 1014.26
1002.87 1003.15 1003.47 1003.83 1004.24 1004.70 1005.19 1005.71 1006.25 1006.78 1007.29 1007.78 1008.22 1008.61 1008.96 1009.28 1009.58 1009.86 1010.15 1010.45 1010.78 1011.12 1011.48 1011.83 1012.17 1012.49 1012.75 1012.97 1013.13 1013.25 1013.33 1013.40 1013.46 1013.54 1013.63 1013.75 1013.88 1014.00
1002.68 1002.91 1003.18 1003.51 1003.89 1004.35 1004.85 1005.39 1005.95 1006.51 1007.06 1007.57 1008.03 1008.45 1008.82 1009.15 1009.46 1009.77 1010.08 1010.40 1010.75 1011.11 1011.48 1011.84 1012.18 1012.48 1012.73 1012.93 1013.06 1013.15 1013.20 1013.23 1013.26 1013.30 1013.36 1013.43 1013.51 1013.59
1002.39 1002.58 1002.81 1003.12 1003.50 1003.95 1004.47 1005.04 1005.63 1006.22 1006.79 1007.33 1007.81 1008.25 1008.64 1008.99 1009.32 1009.64 1009.96 1010.30 1010.66 1011.03 1011.41 1011.77 1012.10 1012.38 1012.62 1012.78 1012.89 1012.95 1012.97 1012.96 1012.95 1012.95 1012.96 1012.99 1013.03 1013.07
1002.06 1002.22 1002.44 1002.73 1003.11 1003.57 1004.11 1004.69 1005.30 1005.92 1006.52 1007.08 1007.58 1008.04 1008.44 1008.80 1009.14 1009.47 1009.81 1010.16 1010.52 1010.89 1011.26 1011.61 1011.92 1012.19 1012.39 1012.53 1012.61 1012.63 1012.62 1012.58 1012.54 1012.50 1012.48 1012.47 1012.47 1012.47
1001.77 1001.92 1002.12 1002.42 1002.80 1003.27 1003.81 1004.41 1005.04 1005.67 1006.28 1006.85 1007.36 1007.82 1008.23 1008.61 1008.95 1009.28 1009.62 1009.97 1010.32 1010.68 1011.03 1011.36 1011.64 1011.88 1012.05 1012.16 1012.21 1012.20 1012.16 1012.10 1012.03 1011.97 1011.92 1011.89 1011.87 1011.85
Thickness
5700 5699 5698 5697 5695 5693 5690 5686 5682 5681 5685 5691 5695 5701 5705 5707 5707 5707 5705 5704 5704 5705 5706 5706 5707 5709 5711 5713 5715 5717 5719 5720 5721 5723 5725 5725 5725 5724
5696 5695 5694 5694 5694 5692 5690 5688 5686 5682 5680 5684 5686 5690 5694 5695 5695 5696 5694 5693 5692 5693 5694 5694 5695 5697 5699 5701 5704 5707 5709 5711 5712 5713 5715 5716 5717 5717
5690 5690 5689 5689 5689 5689 5689 5688 5686 5683 5677 5677 5678 5681 5682 5683 5683 5683 5682 5681 5679 5680 5680 5681 5682 5684 5686 5688 5691 5693 5696 5698 5699 5701 5703 5704 5705 5706
5683 5683 5683 5684 5684 5684 5684 5684 5684 5683 5677 5672 5670 5671 5671 5672 5672 5672 5670 5668 5666 5666 5666 5667 5669 5671 5672 5674 5676 5679 5681 5683 5685 5686 5688 5690 5692 5692
5676 5675 5675 5676 5677 5677 5678 5678 5678 5678 5675 5669 5664 5663 5662 5662 5661 5659 5658 5656 5654 5653 5653 5654 5655 5657 5658 5660 5662 5664 5667 5668 5670 5672 5673 5675 5677 5678
5668 5668 5668 5669 5669 5670 5670 5670 5671 5669 5666 5661 5657 5654 5653 5652 5651 5648 5646 5645 5644 5643 5642 5642 5642 5644 5645 5646 5649 5651 5653 5655 5657 5658 5659 5661 5662 5664
5660 5661 5660 5661 5661 5662 5663 5663 5663 5661 5658 5654 5649 5646 5645 5643 5641 5640 5638 5636 5634 5633 5632 5632 5633 5633 5633 5634 5636 5638 5640 5643 5644 5646 5647 5649 5651 5651
5651 5652 5652 5652 5653 5653 5654 5655 5655 5653 5650 5647 5643 5640 5638 5636 5635 5634 5632 5629 5626 5625 5627 5624 5625 5624 5624 5623 5625 5627 5630 5632 5634 5636 5637 5638 5639 5640
5644 5645 5646 5645 5644 5644 5644 5644 5643 5643 5643 5641 5636 5634 5632 5631 5630 5628 5627 5626 5625 5623 5622 5617 5617 5616 5616 5615 5617 5619 5622 5624 5626 5628 5629 5630 5631 5631
5636 5637 5638 5637 5637 5636 5635 5634 5633 5632 5633 5632 5630 5628 5627 5626 5625 5624 5623 5622 5621 5619 5619 5613 5612 5611 5611 5610 5612 5615 5617 5618 5620 5621 5623 5624 5624 5625
5627 5629 5630 5629 5628 5629 5628 5625 5624 5622 5622 5622 5621 5620 5620 5620 5620 5619 5618 5616 5612 5613 5615 5613 5610 5609 5608 5607 5608 5610 5612 5613 5614 5616 5617 5619 5619 5618
5616 5619 5621 5621 5620 5621 5620 5619 5617 5615 5615 5614 5613 5613 5614 5614 5615 5616 5616 5614 5612 5610 5613 5614 5612 5611 5607 5607 5608 5607 5607 5607 5608 5610 5611 5612 5612 5612
5607 5610 5611 5611 5612 5613 5613 5612 5611 5610 5609 5608 5608 5608 5608 5608 5609 5612 5614 5615 5611 5610 5614 5616 5613 5614 5612 5607 5607 5607 5606 5605 5605 5604 5604 5604 5603 5603
5598 5604 5604 5602 5604 5605 5606 5605 5605 5606 5605 5604 5603 5601 5601 5600 5602 5604 5608 5610 5610 5608 5611 5614 5613 5613 5610 5606 5604 5605 5606 5605 5604 5602 5600 5597 5595 5594
5589 5595 5595 5594 5595 5597 5598 5598 5600 5601 5602 5600 5599 5597 5596 5596 5598 5600 5602 5604 5605 5606 5607 5609 5610 5610 5609 5605 5602 5602 5601 5600 5601 5599 5597 5595 5592 5589
5579 5584 5586 5587 5591 5591 5591 5592 5595 5598 5600 5598 5596 5594 5593 5594 5595 5597 5598 5598 5597 5598 5601 5603 5604 5604 5602 5602 5600 5598 5598 5596 5595 5595 5594 5592 5589 5585
5571 5576 5580 5582 5585 5586 5588 5590 5593 5596 5597 5596 5594 5592 5593 5594 5595 5596 5596 5596 5594 5593 5593 5595 5597 5598 5596 5595 5593 5593 5592 5591 5590 5589 5588 5586 5584 5580
5566 5575 5579 5581 5583 5585 5586 5588 5591 5594 5595 5595 5594 5594 5594 5595 5595 5596 5596 5595 5594 5592 5592 5592 5591 5590 5588 5587 5587 5586 5586 5584 5584 5584 5584 5581 5578 5574
5565 5575 5578 5581 5583 5585 5587 5589 5591 5593 5594 5594 5594 5595 5595 5594 5594 5594 5596 5595 5594 5593 5592 5592 5591 5588 5585 5582 5580 5581 5580 5579 5578 5577 5576 5575 5572 5569
5567 5575 5579 5582 5585 5586 5588 5590 5592 5593 5593 5594 5594 5594 5594 5593 5593 5593 5593 5593 5591 5590 5590 5590 5589 5588 5587 5583 5579 5577 5577 5576 5573 5570 5569 5568 5566 5563
5570 5577 5581 5585 5587 5589 5590 5592 5592 5592 5593 5593 5593 5593 5593 5593 5592 5592 5591 5588 5589 5588 5585 5583 5582 5583 5583 5581 5578 5574 5573 5572 5570 5566 5563 5561 5558 5556
5572 5579 5584 5587 5589 5591 5592 5593 5592 5591 5592 5592 5592 5592 5592 5592 5591 5590 5588 5587 5587 5586 5582 5579 5579 5578 5577 5576 5576 5573 5571 5567 5565 5562 5559 5556 5552 5549
5575 5582 5587 5590 5592 5593 5593 5593 5592 5592 5592 5592 5591 5591 5591 5590 5589 5588 5586 5586 5585 5582 5579 5576 5575 5574 5575 5574 5572 5570 5569 5566 5562 5556 5554 5554 5550 5547